Weather History for Kahului, HI

Change the Weather History Date:

Sunday, May 25, 2014

  Actual Average Record
Temperature  
Mean Temperature 79 °F 77 °F  
Max Temperature 86 °F 85 °F 91 °F (1996)
Min Temperature 71 °F 68 °F 59 °F (2000)
Degree Days  
Heating Degree Days 0 0  
Month to date heating degree days 0 0  
Since 1 July heating degree days 0 0  
Cooling Degree Days 14 12  
Month to date cooling degree days 301 263  
Year to date cooling degree days 1411 1189  
Growing Degree Days 26 (Base 50)    
Moisture  
Dew Point 68 °F    
Average Humidity 74    
Maximum Humidity 90    
Minimum Humidity 58    
Precipitation  
Precipitation T in 0.01 in 0.03 in (1969)
Month to date precipitation 1.01 0.66  
Year to date precipitation 13.94 9.42  
Snow  
Snow 0.00 in - - ()
Month to date snowfall 0.0  
Since 1 July snowfall 0.0  
Snow Depth 0.00 in    
Sea Level Pressure  
Sea Level Pressure 30.03 in    
Wind  
Wind Speed 6 mph (ENE)    
Max Wind Speed 14 mph    
Max Gust Speed 23 mph    
Visibility 10 miles    
Events Rain    
T = Trace of Precipitation, MM = Missing Value Source: NWS Daily Summary

Daily Weather History Graph

Daily Weather History Graph

Search for Another Location

Airport:

Trip Planner

Search our weather history database for the weather conditions in past years. The results will help you decide how hot, cold, wet, or windy it might be!

Date:

Astronomy

May. 25, 2014 Rise Set
Actual Time 5:45 AM HST 7:00 PM HST
Civil Twilight 5:20 AM HST 7:24 PM HST
Nautical Twilight 4:52 AM HST 7:53 PM HST
Astronomical Twilight 4:22 AM HST 8:23 PM HST
Moon 3:32 AM HST (5/25) 4:32 PM HST (5/25)
Length of Visible Light 14h 03m
Length of Day
13h 15m
Waning Crescent, 9% of the Moon is Illuminated
May 25
Waning Crescent
May 28
New
Jun 5
First Quarter
Jun 12
Full
Jun 19
Last Quarter

Hourly Weather History & Observations

Time (HST) Temp. Heat Index Dew Point Humidity Pressure Visibility Wind Dir Wind Speed Gust Speed Precip Events Conditions
12:30 AM 75.2 °F - 68.0 °F 78% 30.03 in 10.0 mi North 10.4 mph - N/A   Overcast
12:54 AM 77.0 °F - 68.0 °F 74% 30.04 in 10.0 mi NNE 11.5 mph - N/A   Overcast
1:54 AM 73.0 °F - 68.0 °F 84% 30.02 in 10.0 mi Calm Calm - N/A   Overcast
2:54 AM 73.0 °F - 66.9 °F 81% 30.02 in 10.0 mi Calm Calm - N/A   Scattered Clouds
3:50 AM 73.4 °F - 66.2 °F 78% 30.00 in 10.0 mi ESE 3.5 mph - N/A   Mostly Cloudy
3:54 AM 73.0 °F - 66.9 °F 81% 30.02 in 10.0 mi ESE 3.5 mph - N/A   Mostly Cloudy
4:54 AM 71.6 °F - 66.2 °F 83% 30.00 in 10.0 mi SE 5.8 mph - N/A   Overcast
5:54 AM 72.0 °F - 68.0 °F 87% 30.03 in 10.0 mi South 3.5 mph - N/A   Scattered Clouds
6:54 AM 73.9 °F - 68.0 °F 82% 30.04 in 10.0 mi Calm Calm - N/A   Scattered Clouds
7:54 AM 75.0 °F - 69.1 °F 82% 30.06 in 10.0 mi Calm Calm - N/A   Partly Cloudy
8:54 AM 80.1 °F 82.9 °F 69.1 °F 69% 30.07 in 10.0 mi Variable 3.5 mph - N/A   Scattered Clouds
9:54 AM 80.1 °F 82.7 °F 68.0 °F 67% 30.05 in 10.0 mi North 9.2 mph - N/A   Scattered Clouds
10:54 AM 82.0 °F 85.5 °F 69.1 °F 65% 30.05 in 10.0 mi NNW 11.5 mph - N/A   Scattered Clouds
11:54 AM 82.9 °F 86.5 °F 69.1 °F 63% 30.03 in 10.0 mi NW 12.7 mph - N/A   Scattered Clouds
12:54 PM 84.9 °F 88.2 °F 68.0 °F 57% 30.01 in 10.0 mi North 8.1 mph - N/A   Scattered Clouds
1:54 PM 82.0 °F 84.5 °F 66.9 °F 60% 30.01 in 10.0 mi WNW 5.8 mph - N/A   Mostly Cloudy
2:54 PM 82.9 °F 85.4 °F 66.9 °F 58% 30.00 in 10.0 mi Variable 4.6 mph - 0.00 in   Mostly Cloudy
3:54 PM 80.1 °F 82.3 °F 66.9 °F 64% 30.00 in 10.0 mi SSW 10.4 mph - N/A   Overcast
4:54 PM 79.0 °F - 66.0 °F 64% 30.00 in 10.0 mi East 5.8 mph - 0.00 in Rain Light Rain
5:54 PM 75.9 °F - 70.0 °F 82% 30.02 in 10.0 mi ESE 6.9 mph - 0.01 in   Mostly Cloudy
6:54 PM 75.9 °F - 69.1 °F 79% 30.04 in 10.0 mi Calm Calm - N/A   Overcast
7:54 PM 75.9 °F - 68.0 °F 76% 30.06 in 10.0 mi Calm Calm - 0.00 in Rain Light Rain
8:54 PM 75.9 °F - 68.0 °F 76% 30.07 in 10.0 mi East 4.6 mph - 0.00 in   Overcast
9:54 PM 73.9 °F - 66.0 °F 76% 30.08 in 10.0 mi ENE 3.5 mph - N/A   Mostly Cloudy
10:54 PM 75.0 °F - 68.0 °F 79% 30.07 in 10.0 mi NNE 11.5 mph - N/A   Scattered Clouds
11:54 PM 72.0 °F - 66.9 °F 84% 30.06 in 10.0 mi South 4.6 mph - N/A   Overcast